QPF
0.00 0.00 0.00 0.00 0.00 0.00 0.00 0.00 0.00 0.00 0.00 0.00 0.00 0.00 0.00 0.00 0.00 0.00 0.00 0.00 0.00 0.00 0.00 0.00 0.00 0.00 0.00 0.00 0.00 0.00 0.00 0.00 0.00 0.00 0.00 0.00 0.00 0.00 0.00 0.00 0.00 0.00 0.00 0.00 0.00 0.00 0.00 0.00 0.00
0.00 0.00 0.00 0.00 0.00 0.00 0.00 0.00 0.00 0.00 0.00 0.00 0.00 0.00 0.00 0.00 0.00 0.00 0.00 0.00 0.00 0.00 0.00 0.00 0.00 0.00 0.00 0.00 0.00 0.00 0.00 0.00 0.00 0.00 0.00 0.00 0.00 0.00 0.00 0.00 0.00 0.01 0.01 0.00 0.00 0.00 0.00 0.00 0.00
0.00 0.00 0.00 0.00 0.00 0.00 0.00 0.00 0.00 0.00 0.00 0.00 0.00 0.00 0.00 0.00 0.00 0.00 0.00 0.00 0.00 0.00 0.00 0.00 0.00 0.00 0.00 0.00 0.00 0.00 0.00 0.00 0.00 0.00 0.00 0.00 0.00 0.00 0.00 0.00 0.00 0.01 0.01 0.00 0.00 0.00 0.00 0.00 0.00
0.00 0.00 0.00 0.00 0.00 0.00 0.00 0.00 0.00 0.00 0.00 0.00 0.00 0.00 0.00 0.00 0.00 0.00 0.00 0.00 0.00 0.00 0.00 0.00 0.00 0.00 0.00 0.00 0.00 0.00 0.00 0.00 0.00 0.00 0.00 0.00 0.00 0.00 0.00 0.00 0.00 0.01 0.01 0.00 0.00 0.00 0.00 0.00 0.00
0.00 0.00 0.00 0.00 0.00 0.00 0.00 0.00 0.00 0.00 0.00 0.00 0.00 0.00 0.00 0.00 0.00 0.00 0.00 0.00 0.00 0.00 0.00 0.00 0.00 0.00 0.00 0.00 0.00 0.00 0.00 0.00 0.00 0.00 0.00 0.00 0.00 0.00 0.00 0.00 0.00 0.01 0.00 0.00 0.00 0.00 0.00 0.00 0.00
0.00 0.00 0.00 0.00 0.00 0.00 0.00 0.00 0.00 0.00 0.00 0.00 0.00 0.00 0.00 0.00 0.00 0.00 0.00 0.00 0.00 0.00 0.00 0.00 0.00 0.00 0.00 0.00 0.00 0.00 0.00 0.00 0.00 0.00 0.00 0.00 0.00 0.00 0.00 0.00 0.00 0.00 0.00 0.00 0.00 0.00 0.00 0.00 0.00
0.00 0.00 0.00 0.00 0.00 0.00 0.00 0.00 0.00 0.00 0.00 0.00 0.00 0.00 0.00 0.00 0.00 0.00 0.00 0.00 0.00 0.00 0.00 0.01 0.00 0.00 0.00 0.00 0.00 0.00 0.01 0.00 0.00 0.00 0.00 0.00 0.00 0.00 0.00 0.00 0.00 0.00 0.00 0.00 0.00 0.00 0.00 0.00 0.00
0.00 0.00 0.00 0.00 0.00 0.00 0.00 0.00 0.00 0.00 0.00 0.00 0.00 0.00 0.00 0.00 0.00 0.00 0.00 0.00 0.00 0.00 0.00 0.00 0.01 0.00 0.00 0.00 0.00 0.00 0.00 0.00 0.00 0.00 0.00 0.00 0.00 0.00 0.00 0.00 0.00 0.00 0.00 0.00 0.00 0.00 0.00 0.00 0.00
0.00 0.00 0.00 0.00 0.00 0.00 0.00 0.00 0.00 0.00 0.00 0.00 0.00 0.00 0.00 0.00 0.00 0.00 0.00 0.01 0.01 0.01 0.01 0.01 0.01 0.01 0.00 0.00 0.01 0.00 0.00 0.00 0.00 0.00 0.00 0.00 0.00 0.00 0.00 0.00 0.00 0.00 0.00 0.00 0.00 0.00 0.00 0.00 0.00
0.00 0.00 0.00 0.00 0.00 0.00 0.00 0.00 0.00 0.00 0.01 0.01 0.00 0.00 0.00 0.00 0.00 0.00 0.00 0.01 0.01 0.01 0.01 0.00 0.01 0.01 0.01 0.01 0.01 0.01 0.01 0.00 0.00 0.00 0.00 0.00 0.00 0.00 0.00 0.00 0.00 0.00 0.00 0.00 0.00 0.00 0.00 0.00 0.00
0.00 0.00 0.00 0.00 0.00 0.00 0.00 0.00 0.00 0.00 0.00 0.01 0.00 0.00 0.00 0.00 0.00 0.00 0.00 0.00 0.00 0.00 0.00 0.01 0.00 0.00 0.00 0.01 0.01 0.01 0.00 0.00 0.00 0.00 0.00 0.00 0.00 0.00 0.00 0.00 0.00 0.00 0.00 0.00 0.00 0.00 0.00 0.00 0.00
0.00 0.00 0.00 0.00 0.00 0.00 0.00 0.00 0.00 0.00 0.00 0.00 0.00 0.00 0.00 0.01 0.01 0.02 0.01 0.01 0.00 0.00 0.01 0.01 0.00 0.00 0.00 0.00 0.00 0.00 0.00 0.00 0.00 0.00 0.00 0.00 0.00 0.00 0.00 0.00 0.00 0.00 0.00 0.00 0.00 0.00 0.00 0.00 0.00
0.00 0.00 0.00 0.00 0.00 0.00 0.00 0.00 0.00 0.00 0.00 0.00 0.00 0.00 0.02 0.04 0.10 0.15 0.13 0.03 0.00 0.01 0.01 0.00 0.00 0.00 0.00 0.00 0.00 0.00 0.00 0.00 0.00 0.00 0.00 0.00 0.00 0.00 0.00 0.00 0.00 0.00 0.00 0.00 0.00 0.00 0.00 0.00 0.00
0.00 0.00 0.00 0.00 0.00 0.00 0.00 0.00 0.00 0.00 0.00 0.00 0.01 0.02 0.03 0.06 0.09 0.10 0.09 0.08 0.04 0.01 0.01 0.00 0.00 0.00 0.00 0.00 0.00 0.00 0.00 0.00 0.00 0.00 0.00 0.00 0.00 0.00 0.00 0.00 0.00 0.00 0.00 0.00 0.00 0.00 0.00 0.00 0.00
0.00 0.00 0.00 0.00 0.00 0.00 0.00 0.00 0.00 0.00 0.00 0.00 0.01 0.02 0.02 0.03 0.03 0.12 0.11 0.09 0.05 0.02 0.00 0.00 0.00 0.00 0.00 0.00 0.00 0.00 0.00 0.00 0.00 0.00 0.00 0.00 0.00 0.00 0.00 0.00 0.00 0.00 0.00 0.00 0.00 0.00 0.00 0.00 0.00
0.00 0.00 0.00 0.00 0.00 0.00 0.00 0.00 0.00 0.00 0.00 0.00 0.00 0.00 0.01 0.02 0.04 0.15 0.09 0.02 0.01 0.01 0.03 0.01 0.03 0.01 0.00 0.00 0.00 0.00 0.00 0.00 0.00 0.00 0.00 0.00 0.00 0.00 0.00 0.00 0.00 0.00 0.00 0.00 0.00 0.00 0.00 0.00 0.00
0.00 0.00 0.00 0.00 0.00 0.00 0.00 0.00 0.00 0.00 0.00 0.00 0.00 0.00 0.00 0.00 0.03 0.10 0.06 0.10 0.09 0.03 0.04 0.07 0.08 0.07 0.03 0.01 0.00 0.00 0.00 0.00 0.00 0.00 0.00 0.00 0.00 0.00 0.00 0.00 0.00 0.00 0.00 0.00 0.00 0.00 0.00 0.00 0.00
0.00 0.00 0.00 0.00 0.00 0.00 0.00 0.00 0.00 0.00 0.00 0.00 0.00 0.00 0.00 0.00 0.00 0.01 0.07 0.09 0.15 0.19 0.14 0.06 0.05 0.02 0.02 0.07 0.01 0.00 0.00 0.00 0.00 0.00 0.00 0.00 0.00 0.00 0.00 0.00 0.00 0.00 0.00 0.00 0.00 0.00 0.00 0.00 0.00
0.00 0.00 0.00 0.00 0.00 0.00 0.00 0.00 0.00 0.00 0.00 0.00 0.00 0.00 0.00 0.00 0.00 0.00 0.01 0.07 0.11 0.13 0.09 0.05 0.05 0.03 0.01 0.01 0.02 0.00 0.00 0.00 0.00 0.00 0.00 0.00 0.00 0.00 0.00 0.00 0.00 0.00 0.00 0.00 0.00 0.00 0.00 0.00 0.00
0.00 0.00 0.00 0.00 0.00 0.00 0.00 0.00 0.00 0.00 0.00 0.00 0.00 0.00 0.00 0.00 0.00 0.00 0.00 0.02 0.06 0.04 0.09 0.10 0.05 0.05 0.00 0.00 0.01 0.00 0.00 0.00 0.00 0.00 0.00 0.00 0.00 0.00 0.00 0.00 0.00 0.00 0.00 0.00 0.00 0.00 0.00 0.00 0.00
0.00 0.00 0.00 0.00 0.00 0.00 0.00 0.00 0.00 0.00 0.00 0.00 0.00 0.00 0.00 0.00 0.00 0.00 0.00 0.00 0.02 0.03 0.03 0.03 0.05 0.02 0.01 0.01 0.01 0.00 0.01 0.00 0.00 0.00 0.00 0.00 0.00 0.00 0.00 0.00 0.00 0.00 0.00 0.00 0.00 0.00 0.00 0.00 0.00
0.00 0.00 0.00 0.00 0.00 0.00 0.00 0.00 0.00 0.00 0.00 0.00 0.00 0.00 0.00 0.00 0.00 0.00 0.00 0.00 0.00 0.00 0.00 0.01 0.02 0.03 0.03 0.02 0.02 0.02 0.02 0.01 0.00 0.00 0.00 0.00 0.00 0.00 0.00 0.00 0.00 0.00 0.00 0.00 0.00 0.00 0.00 0.00 0.00
0.00 0.00 0.00 0.00 0.00 0.00 0.00 0.00 0.00 0.00 0.00 0.00 0.00 0.00 0.00 0.00 0.00 0.00 0.00 0.00 0.00 0.00 0.00 0.00 0.02 0.03 0.03 0.03 0.03 0.02 0.01 0.00 0.00 0.00 0.00 0.00 0.00 0.00 0.00 0.00 0.00 0.00 0.00 0.00 0.00 0.00 0.00 0.00 0.00
0.00 0.00 0.00 0.00 0.00 0.00 0.00 0.00 0.00 0.00 0.00 0.00 0.00 0.00 0.00 0.00 0.00 0.00 0.00 0.00 0.00 0.00 0.00 0.00 0.02 0.09 0.08 0.04 0.05 0.03 0.01 0.01 0.00 0.00 0.01 0.00 0.00 0.00 0.00 0.00 0.01 0.00 0.00 0.00 0.00 0.00 0.00 0.00 0.00
0.00 0.00 0.00 0.00 0.00 0.00 0.00 0.00 0.00 0.00 0.00 0.00 0.00 0.00 0.00 0.00 0.00 0.00 0.00 0.00 0.00 0.00 0.00 0.00 0.00 0.05 0.10 0.10 0.09 0.09 0.06 0.04 0.01 0.01 0.03 0.02 0.02 0.03 0.01 0.02 0.04 0.04 0.04 0.00 0.00 0.00 0.00 0.00 0.00
0.00 0.00 0.00 0.00 0.00 0.00 0.00 0.00 0.00 0.00 0.00 0.00 0.00 0.00 0.00 0.00 0.00 0.00 0.00 0.00 0.00 0.00 0.00 0.00 0.00 0.02 0.05 0.09 0.13 0.13 0.10 0.04 0.03 0.03 0.04 0.05 0.07 0.10 0.14 0.16 0.14 0.11 0.08 0.03 0.00 0.00 0.00 0.00 0.00
0.00 0.00 0.00 0.00 0.00 0.00 0.00 0.00 0.00 0.00 0.00 0.00 0.00 0.00 0.00 0.00 0.00 0.00 0.00 0.00 0.00 0.00 0.00 0.00 0.00 0.01 0.02 0.04 0.06 0.09 0.07 0.10 0.04 0.02 0.02 0.06 0.07 0.10 0.13 0.14 0.16 0.13 0.09 0.06 0.03 0.00 0.00 0.00 0.00
0.00 0.00 0.00 0.00 0.00 0.00 0.00 0.00 0.00 0.00 0.00 0.00 0.00 0.00 0.00 0.00 0.00 0.00 0.00 0.00 0.00 0.00 0.00 0.00 0.00 0.00 0.01 0.02 0.04 0.04 0.05 0.04 0.09 0.06 0.06 0.02 0.03 0.06 0.07 0.08 0.06 0.04 0.04 0.06 0.05 0.02 0.01 0.01 0.00
0.00 0.00 0.00 0.00 0.00 0.00 0.00 0.00 0.00 0.00 0.00 0.00 0.00 0.00 0.00 0.00 0.00 0.00 0.00 0.00 0.00 0.00 0.00 0.00 0.00 0.00 0.01 0.02 0.01 0.02 0.02 0.00 0.00 0.03 0.08 0.06 0.04 0.03 0.03 0.06 0.05 0.02 0.02 0.05 0.05 0.04 0.04 0.03 0.04
0.00 0.00 0.00 0.00 0.00 0.00 0.00 0.00 0.00 0.00 0.00 0.00 0.00 0.00 0.00 0.00 0.00 0.00 0.00 0.00 0.00 0.00 0.00 0.00 0.00 0.00 0.00 0.01 0.00 0.00 0.00 0.00 0.00 0.00 0.01 0.02 0.04 0.04 0.05 0.03 0.03 0.04 0.03 0.05 0.04 0.04 0.03 0.03 0.03
MSLP
1012.95 1012.67 1012.50 1012.08 1012.22 1011.80 1011.22 1011.26 1011.12 1010.91 1011.24 1011.26 1011.20 1011.47 1011.69 1011.88 1012.87 1014.54 1014.65 1015.31 1015.86 1016.80 1017.72 1018.35 1018.74 1019.10 1019.23 1019.32 1019.59 1020.12 1020.59 1020.86 1021.15 1021.43 1021.76 1021.95 1022.31 1022.45 1022.55 1022.64 1022.92 1023.23 1023.36 1023.48 1023.50 1023.60 1023.86 1024.19 1024.44
1012.89 1012.52 1012.07 1012.28 1011.95 1011.44 1011.35 1011.28 1010.79 1010.93 1011.09 1011.28 1011.41 1011.64 1011.81 1012.30 1013.04 1014.15 1014.79 1015.59 1016.02 1016.75 1017.72 1018.41 1018.85 1019.21 1019.48 1019.50 1019.79 1020.35 1020.94 1021.24 1021.55 1021.74 1022.07 1022.23 1022.68 1022.74 1022.83 1022.98 1023.32 1023.62 1023.83 1023.98 1024.09 1024.17 1024.41 1024.64 1024.92
1012.86 1012.67 1012.04 1012.37 1012.41 1011.53 1011.12 1011.14 1010.94 1010.94 1011.35 1011.59 1011.74 1011.93 1011.98 1012.56 1013.23 1013.80 1014.36 1015.05 1015.91 1016.70 1017.68 1018.53 1019.00 1019.38 1019.65 1019.89 1020.13 1020.50 1021.17 1021.51 1021.81 1022.26 1022.34 1022.71 1023.05 1023.09 1023.22 1023.19 1023.53 1024.07 1024.38 1024.46 1024.78 1024.78 1024.96 1025.23 1025.53
1012.78 1012.62 1013.39 1012.55 1012.21 1011.78 1011.56 1011.42 1011.38 1011.20 1011.78 1011.98 1011.86 1011.87 1012.62 1013.15 1013.44 1013.90 1014.58 1015.28 1016.22 1016.93 1017.38 1018.47 1019.01 1019.58 1019.81 1020.22 1020.74 1020.87 1021.36 1021.90 1022.24 1022.45 1022.73 1023.10 1023.30 1023.43 1023.70 1023.72 1023.74 1024.26 1024.88 1025.07 1025.29 1025.58 1025.67 1025.77 1025.98
1013.19 1012.94 1012.90 1012.80 1012.62 1012.14 1012.26 1012.25 1011.93 1011.51 1011.46 1011.43 1011.80 1012.11 1013.07 1013.62 1013.59 1014.23 1014.86 1015.75 1016.40 1017.21 1017.81 1018.46 1019.05 1019.37 1019.76 1020.38 1021.12 1021.50 1021.69 1022.11 1022.54 1022.81 1023.08 1023.43 1023.60 1023.79 1024.06 1024.21 1024.43 1024.57 1025.28 1025.84 1025.90 1026.17 1026.21 1026.24 1026.33
1013.26 1013.56 1013.20 1012.80 1012.91 1012.60 1012.55 1012.68 1012.30 1011.91 1011.49 1011.49 1011.88 1012.36 1013.53 1014.26 1014.14 1014.37 1015.23 1016.03 1016.86 1017.45 1018.18 1018.80 1019.23 1019.47 1019.87 1020.45 1021.16 1021.79 1022.09 1022.31 1022.96 1023.13 1023.45 1023.79 1024.03 1024.13 1024.34 1024.50 1024.95 1025.15 1025.71 1026.39 1026.51 1026.58 1026.78 1026.63 1026.72
1013.41 1013.52 1013.45 1013.44 1013.19 1012.96 1012.80 1012.78 1012.50 1012.23 1011.62 1011.37 1011.66 1012.28 1013.98 1014.41 1014.47 1014.88 1015.31 1016.27 1017.04 1017.57 1018.26 1018.83 1019.31 1019.83 1020.08 1020.55 1021.31 1021.78 1022.25 1022.58 1023.15 1023.41 1023.84 1024.07 1024.39 1024.76 1024.76 1024.94 1025.40 1025.70 1026.18 1026.57 1026.94 1027.11 1027.24 1027.22 1027.17
1014.30 1014.29 1014.26 1014.17 1013.65 1013.31 1013.38 1012.97 1012.73 1012.43 1011.96 1011.86 1012.05 1012.28 1013.40 1014.26 1014.85 1015.28 1015.97 1016.53 1017.34 1017.83 1018.34 1018.79 1019.43 1019.81 1020.29 1020.91 1021.58 1021.76 1022.28 1022.97 1023.32 1023.62 1024.07 1024.49 1024.78 1025.18 1025.25 1025.35 1026.06 1026.24 1026.61 1026.82 1027.18 1027.56 1027.74 1027.83 1027.69
1014.87 1014.98 1014.89 1014.54 1014.46 1014.01 1014.17 1013.62 1012.92 1012.75 1012.43 1012.66 1013.04 1012.95 1013.04 1014.16 1014.87 1015.67 1016.43 1017.17 1017.58 1018.09 1018.68 1019.02 1019.48 1020.00 1020.57 1020.93 1021.72 1022.15 1022.49 1023.05 1023.62 1023.99 1024.39 1024.83 1024.90 1025.27 1025.42 1025.67 1026.50 1026.68 1027.00 1027.32 1027.49 1027.88 1028.22 1028.40 1028.29
1015.03 1015.65 1015.54 1015.69 1015.36 1015.20 1014.97 1014.58 1013.90 1013.15 1012.98 1013.22 1013.51 1013.90 1013.93 1014.35 1014.98 1015.45 1016.05 1016.83 1017.49 1018.07 1018.66 1019.01 1019.56 1020.19 1020.90 1021.18 1021.73 1022.14 1022.78 1023.30 1023.55 1023.92 1024.49 1024.85 1025.35 1025.59 1025.46 1026.14 1026.95 1027.16 1027.28 1027.82 1028.01 1028.19 1028.54 1028.47 1028.49
1016.01 1016.00 1016.45 1016.33 1016.36 1016.31 1015.72 1014.89 1014.93 1014.24 1014.03 1014.87 1014.91 1014.58 1014.80 1014.87 1015.30 1015.81 1016.27 1016.68 1017.18 1017.80 1018.47 1018.93 1019.59 1020.30 1020.88 1021.18 1021.67 1022.10 1022.70 1023.51 1023.67 1024.14 1024.61 1025.10 1025.58 1025.98 1025.74 1026.21 1027.05 1027.51 1027.54 1027.74 1028.29 1028.51 1028.55 1028.67 1028.79
1016.35 1017.07 1017.12 1017.16 1017.37 1016.99 1016.45 1015.93 1016.22 1016.55 1017.40 1016.29 1014.54 1014.80 1015.24 1015.50 1015.62 1015.76 1016.40 1016.99 1017.47 1017.79 1018.23 1018.91 1019.64 1020.11 1020.72 1021.20 1021.49 1022.11 1022.75 1023.36 1023.75 1024.44 1024.86 1025.20 1025.67 1025.98 1026.00 1026.21 1026.93 1027.33 1027.50 1027.90 1028.44 1028.63 1028.96 1029.14 1029.33
1016.83 1017.49 1017.85 1018.14 1017.87 1017.52 1017.00 1017.37 1017.29 1017.84 1017.52 1016.02 1015.67 1015.91 1015.93 1016.25 1016.73 1016.97 1016.97 1017.65 1018.20 1018.50 1018.64 1018.80 1019.34 1019.76 1020.40 1021.09 1021.49 1022.09 1022.65 1023.14 1023.90 1024.66 1024.91 1025.38 1025.60 1025.84 1026.12 1026.49 1027.01 1027.47 1027.72 1028.12 1028.47 1028.88 1029.09 1029.42 1029.59
1017.78 1018.09 1018.67 1018.83 1018.55 1018.34 1018.15 1018.94 1018.48 1019.71 1019.49 1018.34 1018.00 1017.71 1017.37 1017.18 1017.23 1017.44 1017.65 1017.41 1017.76 1018.33 1018.61 1019.13 1019.39 1019.80 1020.12 1020.85 1021.56 1021.89 1022.44 1023.02 1023.74 1024.58 1024.81 1025.18 1025.47 1025.90 1026.06 1026.57 1027.10 1027.51 1027.72 1028.17 1028.50 1028.71 1029.19 1029.37 1029.70
1018.28 1018.50 1018.89 1019.56 1019.33 1018.79 1019.27 1019.78 1021.88 1022.18 1021.17 1020.25 1020.34 1020.10 1019.78 1019.85 1018.57 1018.09 1018.03 1017.59 1017.20 1017.58 1017.96 1018.74 1019.24 1019.63 1020.11 1020.85 1021.37 1021.78 1022.28 1022.81 1023.41 1024.11 1024.63 1024.94 1025.40 1025.89 1026.07 1026.44 1026.98 1027.35 1027.83 1028.34 1028.68 1029.16 1029.42 1029.42 1029.81
1019.12 1019.40 1019.71 1020.86 1020.18 1019.18 1019.57 1021.78 1023.11 1023.23 1022.52 1022.25 1022.16 1022.00 1021.68 1021.54 1021.26 1020.72 1019.71 1018.81 1017.94 1018.03 1018.37 1018.80 1019.06 1019.40 1019.81 1020.55 1021.24 1021.66 1022.09 1022.65 1023.46 1023.75 1024.20 1024.75 1025.14 1025.70 1026.10 1026.44 1026.77 1027.25 1027.71 1028.11 1028.51 1028.98 1029.21 1029.44 1029.79
1020.42 1020.46 1020.94 1021.27 1021.41 1020.74 1020.16 1022.18 1023.92 1024.09 1023.78 1023.42 1023.44 1023.26 1023.11 1022.62 1021.97 1021.60 1021.32 1020.47 1018.52 1018.25 1018.66 1019.09 1019.28 1019.43 1019.79 1020.31 1020.88 1021.58 1021.95 1022.47 1022.92 1023.62 1023.87 1024.34 1024.84 1025.34 1025.81 1026.16 1026.64 1027.23 1027.42 1027.97 1028.38 1028.87 1029.23 1029.47 1029.74
1021.57 1021.78 1021.99 1022.09 1022.41 1021.95 1022.02 1023.53 1024.51 1024.78 1024.52 1024.50 1024.30 1023.99 1023.87 1023.80 1023.62 1022.87 1022.26 1021.55 1019.49 1018.58 1018.59 1018.78 1019.27 1019.63 1019.88 1020.27 1020.63 1021.20 1021.98 1022.36 1022.85 1023.43 1023.65 1023.84 1024.40 1025.05 1025.50 1025.86 1026.50 1026.98 1027.29 1027.69 1028.15 1028.72 1029.23 1029.35 1029.66
1022.64 1022.89 1022.94 1023.02 1023.11 1022.95 1023.38 1024.03 1024.83 1025.24 1025.08 1024.91 1024.84 1024.68 1024.51 1024.33 1024.28 1023.81 1023.21 1022.61 1021.28 1019.43 1018.71 1018.45 1018.93 1019.27 1019.84 1020.17 1020.28 1020.73 1021.46 1022.10 1022.59 1022.78 1023.40 1023.83 1024.09 1024.76 1025.35 1025.59 1026.23 1026.64 1026.85 1026.99 1027.70 1028.27 1028.99 1029.53 1029.85
1023.45 1023.55 1023.73 1023.80 1023.69 1023.48 1023.90 1024.35 1025.00 1025.45 1025.80 1026.10 1025.97 1025.61 1025.28 1024.65 1024.18 1023.81 1023.35 1023.30 1023.00 1022.28 1021.14 1019.31 1018.71 1018.90 1019.04 1019.51 1019.74 1020.30 1020.93 1021.40 1021.14 1022.37 1023.00 1023.55 1023.89 1024.21 1024.88 1025.32 1025.64 1026.20 1026.49 1026.87 1027.27 1027.65 1028.45 1029.00 1029.52
1024.49 1024.49 1024.59 1024.67 1024.32 1024.11 1024.25 1024.24 1024.86 1025.56 1026.11 1026.34 1026.51 1026.51 1026.15 1025.71 1025.03 1024.56 1024.18 1024.00 1023.76 1023.24 1022.57 1021.71 1020.15 1018.62 1018.76 1019.34 1019.78 1020.09 1020.79 1021.15 1021.63 1021.59 1022.71 1023.14 1023.63 1023.83 1024.24 1024.78 1025.03 1025.63 1025.96 1026.27 1026.63 1027.05 1027.42 1028.02 1028.92
1025.02 1025.38 1025.20 1025.10 1024.79 1024.29 1024.59 1024.02 1024.63 1025.51 1026.04 1026.69 1027.02 1026.87 1026.66 1026.23 1025.81 1025.35 1025.00 1024.62 1024.18 1023.80 1023.40 1022.27 1020.46 1018.37 1018.39 1018.90 1019.33 1019.42 1020.10 1020.44 1020.68 1021.23 1022.25 1022.51 1023.15 1023.42 1023.72 1024.16 1024.49 1024.86 1025.27 1025.73 1026.21 1026.60 1026.74 1027.33 1027.77
1025.80 1025.67 1025.44 1025.31 1025.08 1024.96 1024.73 1025.19 1024.58 1025.83 1026.31 1026.96 1027.66 1027.88 1027.55 1027.16 1026.59 1025.96 1025.55 1025.40 1025.14 1024.37 1023.67 1022.64 1021.16 1018.46 1018.15 1018.46 1018.67 1018.87 1019.30 1019.80 1020.40 1021.07 1021.76 1022.03 1022.27 1022.60 1022.85 1023.36 1023.98 1024.45 1024.75 1025.04 1025.49 1026.12 1026.56 1026.79 1026.98
1026.45 1025.94 1025.70 1025.60 1025.32 1025.00 1024.82 1025.45 1025.45 1026.95 1028.18 1028.33 1028.38 1028.29 1028.24 1027.82 1027.14 1026.65 1026.09 1025.66 1025.26 1024.84 1024.14 1022.95 1021.68 1019.38 1017.90 1018.07 1018.29 1018.34 1018.81 1019.42 1020.08 1020.60 1021.15 1021.03 1021.48 1021.91 1022.09 1022.42 1023.02 1023.40 1024.10 1024.60 1024.94 1025.32 1025.79 1026.07 1026.39
1027.09 1026.52 1025.84 1025.75 1025.54 1025.01 1025.66 1026.36 1027.12 1028.43 1029.17 1029.30 1029.08 1028.70 1028.47 1028.41 1027.86 1027.21 1026.43 1025.85 1025.45 1025.06 1024.56 1023.82 1022.37 1020.34 1019.42 1017.88 1017.84 1018.08 1018.33 1018.96 1019.30 1019.79 1020.00 1020.55 1021.01 1021.14 1021.29 1021.54 1022.09 1022.54 1022.92 1023.44 1024.00 1024.55 1025.05 1025.48 1025.78
1028.43 1028.11 1027.49 1026.78 1026.20 1026.05 1026.46 1026.68 1028.16 1029.57 1030.01 1030.08 1029.74 1029.35 1028.87 1028.53 1028.38 1027.88 1027.25 1026.64 1026.10 1025.58 1024.97 1024.10 1023.09 1021.52 1020.38 1019.40 1018.73 1018.26 1017.99 1018.21 1018.80 1019.35 1019.92 1020.32 1020.24 1020.29 1020.64 1021.03 1021.34 1021.52 1021.97 1022.66 1023.18 1023.56 1024.05 1024.55 1024.92
1029.39 1029.05 1029.50 1028.25 1027.55 1027.37 1026.77 1028.37 1029.58 1029.80 1030.16 1030.07 1029.82 1029.44 1028.99 1028.85 1028.56 1028.23 1027.61 1027.05 1026.48 1025.91 1025.25 1024.65 1023.70 1022.44 1021.39 1020.42 1020.08 1019.36 1018.94 1018.11 1018.71 1018.85 1019.45 1019.66 1019.71 1019.81 1020.54 1020.80 1021.05 1021.16 1021.40 1021.63 1022.22 1022.56 1022.94 1023.43 1023.84
1030.61 1030.72 1030.05 1029.29 1028.32 1027.47 1027.49 1028.76 1029.57 1030.35 1030.42 1030.28 1029.96 1029.69 1029.33 1029.13 1028.83 1028.55 1027.92 1027.22 1026.67 1026.25 1025.42 1024.76 1024.24 1022.82 1022.07 1021.07 1020.61 1020.54 1020.15 1018.77 1019.20 1019.58 1019.31 1019.16 1019.61 1019.16 1018.47 1020.11 1020.02 1020.53 1020.58 1021.24 1021.18 1021.77 1022.15 1022.75 1022.98
1031.38 1031.31 1031.09 1030.70 1029.55 1028.70 1028.67 1029.67 1030.86 1030.98 1030.77 1030.26 1029.88 1029.81 1029.60 1029.27 1029.09 1028.75 1028.09 1027.42 1026.80 1026.52 1025.61 1024.75 1023.92 1023.22 1022.44 1022.02 1021.22 1020.73 1020.69 1020.55 1020.32 1019.55 1019.00 1018.93 1019.27 1019.31 1019.37 1019.44 1018.93 1019.22 1019.19 1020.64 1021.10 1021.45 1021.66 1021.96 1022.24
1032.48 1032.28 1031.89 1031.06 1030.23 1030.08 1030.17 1030.23 1030.94 1030.83 1030.58 1030.18 1029.80 1029.83 1029.43 1029.22 1029.27 1028.86 1028.34 1027.53 1026.74 1026.47 1025.68 1024.73 1023.80 1023.40 1022.53 1021.88 1021.55 1021.26 1020.93 1020.44 1019.99 1019.85 1019.72 1019.81 1019.61 1019.05 1018.44 1018.87 1019.25 1020.21 1019.51 1018.90 1020.24 1020.64 1020.84 1021.08 1021.23
Thickness
5738 5741 5745 5746 5726 5720 5709 5715 5726 5728 5730 5746 5754 5747 5744 5750 5738 5722 5741 5739 5735 5728 5722 5717 5718 5716 5718 5718 5718 5712 5706 5706 5706 5705 5703 5703 5700 5701 5702 5702 5700 5697 5696 5696 5695 5693 5690 5685 5682
5735 5738 5742 5728 5715 5706 5706 5717 5723 5731 5737 5744 5748 5746 5743 5738 5742 5735 5734 5735 5731 5727 5719 5715 5715 5714 5714 5716 5715 5709 5702 5702 5702 5702 5701 5701 5697 5699 5701 5699 5696 5693 5692 5691 5690 5689 5685 5681 5678
5732 5732 5729 5713 5699 5706 5709 5717 5726 5735 5735 5735 5738 5744 5744 5737 5741 5739 5743 5738 5731 5725 5719 5713 5712 5711 5711 5712 5711 5708 5701 5698 5699 5696 5698 5696 5693 5696 5696 5699 5694 5688 5687 5687 5684 5683 5680 5677 5674
5726 5727 5713 5709 5702 5712 5714 5718 5722 5727 5728 5732 5738 5737 5740 5743 5738 5741 5740 5733 5725 5720 5718 5713 5710 5708 5709 5707 5703 5704 5701 5696 5694 5694 5694 5692 5692 5692 5691 5693 5693 5688 5682 5682 5680 5677 5674 5672 5670
5716 5713 5700 5694 5696 5706 5709 5711 5716 5719 5727 5732 5735 5734 5730 5737 5744 5740 5736 5730 5725 5717 5712 5709 5707 5708 5708 5705 5698 5695 5697 5694 5691 5690 5690 5688 5689 5688 5687 5687 5687 5687 5679 5675 5675 5670 5669 5668 5667
5704 5699 5690 5692 5690 5699 5704 5703 5708 5714 5726 5730 5729 5729 5725 5731 5737 5738 5733 5725 5719 5714 5708 5705 5704 5705 5705 5702 5696 5692 5691 5692 5687 5687 5686 5684 5684 5685 5684 5685 5680 5681 5677 5670 5670 5668 5664 5665 5664
5696 5693 5685 5680 5685 5691 5700 5705 5704 5709 5717 5725 5735 5726 5718 5723 5731 5733 5733 5725 5716 5713 5707 5704 5702 5701 5701 5700 5693 5691 5689 5688 5684 5685 5682 5682 5680 5677 5679 5679 5675 5675 5672 5669 5666 5664 5660 5661 5661
5686 5684 5670 5671 5680 5687 5695 5699 5704 5709 5715 5729 5732 5723 5716 5723 5726 5727 5725 5721 5714 5710 5707 5705 5701 5699 5697 5693 5689 5688 5686 5683 5682 5681 5679 5677 5675 5672 5674 5674 5668 5668 5667 5667 5663 5660 5657 5655 5657
5678 5672 5663 5671 5671 5683 5686 5686 5705 5712 5714 5716 5716 5723 5729 5726 5722 5717 5714 5711 5708 5706 5703 5700 5698 5696 5692 5690 5684 5682 5681 5678 5677 5676 5674 5671 5671 5669 5669 5669 5663 5664 5663 5661 5660 5657 5653 5650 5651
5674 5661 5662 5663 5669 5670 5673 5676 5685 5700 5707 5706 5709 5712 5719 5720 5717 5714 5710 5706 5704 5700 5697 5694 5692 5691 5686 5684 5681 5680 5675 5672 5673 5674 5670 5668 5665 5663 5667 5663 5657 5659 5659 5656 5654 5653 5650 5649 5648
5659 5662 5654 5659 5661 5661 5667 5679 5679 5689 5696 5686 5689 5697 5704 5710 5710 5708 5706 5706 5703 5699 5695 5693 5687 5684 5681 5681 5679 5676 5673 5668 5670 5669 5666 5664 5660 5657 5663 5659 5652 5652 5656 5654 5649 5649 5647 5646 5644
5656 5649 5649 5652 5649 5652 5658 5667 5664 5663 5656 5671 5696 5699 5698 5699 5702 5703 5699 5696 5694 5693 5692 5688 5683 5681 5678 5677 5677 5674 5670 5666 5665 5663 5662 5660 5656 5656 5658 5656 5651 5650 5653 5651 5646 5645 5644 5642 5639
5648 5643 5641 5638 5641 5647 5652 5649 5655 5649 5656 5679 5686 5687 5687 5688 5686 5686 5689 5685 5681 5680 5683 5685 5680 5679 5676 5674 5673 5669 5666 5665 5660 5657 5659 5655 5654 5654 5653 5650 5647 5647 5648 5646 5644 5641 5640 5638 5636
5633 5632 5626 5626 5629 5636 5640 5631 5642 5632 5639 5650 5655 5663 5672 5676 5679 5679 5677 5681 5678 5675 5675 5675 5675 5674 5674 5671 5667 5666 5665 5663 5660 5655 5656 5654 5652 5651 5651 5648 5643 5643 5644 5642 5640 5640 5636 5635 5632
5622 5622 5619 5611 5616 5626 5623 5624 5602 5606 5621 5629 5631 5637 5642 5643 5664 5668 5670 5675 5682 5680 5679 5672 5670 5669 5669 5666 5664 5662 5660 5659 5657 5655 5654 5653 5651 5648 5648 5645 5641 5641 5640 5637 5636 5633 5630 5632 5629
5605 5603 5608 5590 5602 5617 5620 5599 5590 5593 5603 5608 5610 5616 5623 5623 5627 5635 5647 5658 5670 5671 5669 5669 5669 5667 5666 5662 5658 5658 5655 5653 5651 5653 5652 5651 5650 5647 5644 5641 5640 5637 5636 5635 5633 5630 5629 5628 5625
5584 5588 5581 5580 5582 5589 5607 5591 5574 5578 5585 5589 5593 5598 5602 5610 5617 5622 5627 5639 5659 5661 5658 5657 5659 5661 5660 5658 5656 5652 5651 5649 5650 5649 5651 5650 5648 5645 5643 5641 5638 5634 5634 5631 5631 5628 5625 5624 5623
5565 5565 5562 5561 5562 5571 5576 5562 5560 5562 5568 5570 5577 5584 5587 5591 5597 5607 5615 5624 5645 5655 5655 5656 5653 5653 5654 5652 5652 5646 5644 5644 5645 5644 5646 5649 5645 5642 5641 5640 5636 5633 5631 5630 5628 5625 5622 5621 5619
5548 5544 5545 5544 5546 5551 5548 5547 5542 5546 5553 5558 5562 5567 5571 5576 5582 5591 5599 5606 5620 5640 5651 5653 5650 5650 5648 5647 5648 5645 5643 5642 5640 5642 5642 5642 5642 5640 5638 5637 5634 5632 5631 5633 5629 5625 5620 5617 5614
5531 5530 5527 5526 5528 5535 5531 5531 5529 5530 5530 5532 5537 5544 5552 5562 5570 5580 5589 5591 5596 5605 5618 5638 5646 5646 5649 5648 5649 5646 5643 5642 5644 5638 5636 5637 5639 5640 5636 5634 5634 5631 5629 5629 5627 5626 5619 5617 5614
5506 5508 5505 5503 5508 5510 5512 5521 5515 5514 5514 5517 5519 5522 5529 5537 5548 5558 5570 5574 5580 5589 5598 5611 5628 5645 5644 5639 5637 5640 5637 5636 5639 5641 5636 5636 5632 5635 5635 5632 5632 5630 5629 5627 5626 5624 5622 5619 5613
5495 5484 5487 5485 5490 5502 5496 5516 5504 5496 5498 5496 5496 5502 5508 5516 5525 5536 5546 5556 5565 5575 5584 5598 5617 5640 5644 5641 5638 5638 5634 5634 5640 5637 5629 5630 5627 5629 5630 5629 5628 5629 5627 5626 5623 5621 5621 5618 5616
5476 5472 5474 5472 5473 5473 5479 5484 5501 5475 5479 5475 5469 5473 5482 5490 5502 5513 5524 5533 5544 5556 5571 5585 5603 5631 5638 5637 5638 5638 5637 5637 5632 5627 5625 5627 5629 5629 5629 5627 5623 5622 5622 5621 5621 5619 5615 5615 5615
5459 5465 5460 5455 5460 5464 5469 5474 5484 5447 5432 5440 5444 5449 5454 5464 5477 5490 5502 5515 5527 5539 5553 5571 5588 5612 5629 5631 5633 5636 5635 5630 5628 5626 5625 5632 5630 5628 5629 5629 5625 5622 5617 5614 5615 5615 5614 5612 5611
5448 5453 5466 5456 5449 5463 5447 5447 5436 5417 5412 5416 5422 5427 5433 5438 5450 5463 5482 5495 5508 5523 5536 5550 5570 5592 5605 5624 5628 5630 5630 5626 5627 5627 5625 5625 5625 5629 5631 5630 5626 5622 5619 5616 5614 5613 5610 5608 5608
5424 5426 5428 5423 5435 5441 5435 5446 5421 5394 5395 5396 5401 5407 5413 5418 5424 5436 5454 5470 5486 5501 5518 5535 5550 5570 5585 5599 5609 5619 5626 5625 5625 5623 5620 5619 5623 5626 5625 5625 5624 5622 5620 5616 5614 5613 5610 5607 5607
5417 5417 5399 5413 5416 5411 5437 5397 5384 5389 5382 5382 5383 5388 5395 5397 5403 5412 5429 5448 5465 5483 5500 5516 5533 5551 5565 5581 5589 5599 5607 5616 5613 5618 5613 5615 5619 5616 5612 5614 5617 5618 5617 5617 5614 5613 5612 5609 5608
5399 5393 5403 5406 5408 5423 5425 5398 5394 5368 5369 5371 5371 5371 5376 5376 5381 5391 5407 5426 5446 5463 5483 5501 5516 5536 5549 5564 5574 5580 5580 5592 5595 5597 5605 5608 5606 5611 5603 5612 5614 5618 5613 5609 5613 5612 5611 5609 5609
5393 5385 5382 5380 5400 5413 5411 5388 5359 5357 5359 5361 5365 5359 5358 5362 5363 5371 5384 5406 5427 5444 5467 5486 5506 5520 5536 5545 5559 5568 5572 5575 5581 5589 5596 5597 5601 5604 5604 5610 5608 5611 5611 5603 5604 5606 5607 5608 5607
5379 5371 5370 5376 5389 5378 5375 5372 5354 5354 5353 5356 5356 5350 5351 5354 5354 5364 5370 5387 5413 5430 5452 5473 5493 5507 5523 5538 5545 5554 5560 5567 5573 5577 5579 5583 5589 5595 5605 5606 5606 5600 5605 5606 5602 5605 5609 5607 5606